Location: Vassar Physics Lab
(41.6843°N, 73.8954°W)
Time: 00:02:23
(UTC-05:00)

Daily predictions for brighter satellites

Satellite Brightness Start Highest point End
(mag) Time Altitude Azimuth Time Altitude Azimuth Time Altitude Azimuth
CENTAUR R/B 3.8 03:08:20 47° ESE 03:08:20 47° ESE 03:14:09 10° SE
Cosmos 1697 Rocket 3.5 03:47:04 44° ESE 03:47:10 44° ESE 03:52:29 10° NE
SJ 16-02 3.9 03:51:15 12° SE 03:53:41 18° E 03:56:45 10° NE
Cosmos 2297 Rocket 4.1 04:09:40 18° SSE 04:09:40 18° SSE 04:11:01 10° SSE
Cosmos 2285 Rocket 4.1 04:08:03 64° S 04:08:03 64° S 04:13:24 10° SSE
Lacrosse 5 rocket 3.0 04:10:32 31° E 04:10:32 31° E 04:12:58 10° ESE
Cosmos 2150 Rocket 4.3 04:10:42 60° NNE 04:10:42 60° NNE 04:14:55 10° NNE
CZ-4B R/B 3.5 04:10:50 10° NNE 04:16:15 64° ESE 04:19:30 25° S
BREEZE-M DEB (TANK) 4.1 04:18:42 23° ESE 04:18:42 23° ESE 04:19:38 10° ESE
Cosmos 1869 Rocket 4.1 04:14:52 10° N 04:19:15 58° E 04:23:38 10° SSE
IDEFIX/ARIANE 42P 4.4 04:18:01 10° NE 04:22:33 29° E 04:27:01 10° SSE
Cosmos 1934 Rocket 4.4 04:16:48 10° S 04:23:03 65° E 04:29:22 10° NNE
Cosmos 1707 Rocket 4.4 04:22:32 22° SSE 04:25:11 51° E 04:29:32 10° NNE
CZ-4B DEB 4.1 04:25:25 10° NNE 04:30:56 84° WNW 04:32:50 43° SSW
Cosmos 2123 Rocket 4.3 04:25:18 10° N 04:31:30 65° E 04:37:42 10° SSE
Okean O Rocket 2.2 04:28:59 10° N 04:32:14 47° N 04:32:14 47° N
SJ-6F 4.3 04:33:06 10° NNE 04:37:12 84° ESE 04:37:14 84° ESE
Cosmos 158 Rocket 4.2 04:32:28 10° NNW 04:37:30 68° ENE 04:42:37 10° SSE
Cosmos 2278 4.0 04:38:23 47° NW 04:38:23 47° NW 04:43:44 10° NNE
OAO 3 Rocket 4.3 04:42:43 30° SSW 04:42:43 30° SSW 04:46:58 10° SE
Cosmos 1821 Rocket 3.9 04:40:17 25° SSW 04:43:56 65° W 04:50:09 10° N
Cosmos 1937 Rocket 4.3 04:48:09 33° NW 04:48:09 33° NW 04:52:08 10° N
PAYLOAD B 4.2 04:43:18 10° N 04:48:41 58° WNW 04:50:42 37° SW
Cosmos 2322 Rocket 4.3 04:44:22 10° SSE 04:49:01 27° ESE 04:53:41 10° NE
SKYMED 2 4.4 04:45:30 10° SSE 04:49:42 50° ENE 04:53:54 10° N
ADEOS II 4.2 04:49:17 10° NNW 04:49:53 12° NNW 04:49:53 12° NNW
USA 116 4.1 04:51:14 10° SSE 04:55:42 86° WSW 05:00:44 10° NNW
Cosmos 1535 Rocket 4.4 04:49:46 10° SSW 04:55:50 61° W 05:01:54 10° N
CENTAUR R/B 3.7 04:55:38 31° WSW 04:56:03 31° WSW 05:03:08 10° SSW
Cosmos 1125 Rocket 3.6 04:51:09 10° S 04:56:18 73° ESE 05:01:30 10° NNE
Cosmos 372 Rocket 4.1 04:51:24 10° SSW 04:56:28 75° ESE 05:01:35 10° NNE
Cosmos 1862 3.2 04:54:54 10° NNW 04:58:51 61° W 05:02:46 10° S
Cosmos 1933 3.3 04:56:05 10° S 05:00:09 84° E 05:04:14 10° N
Cosmos 1980 Rocket 2.1 04:55:52 17° SSW 05:00:22 80° WNW 05:06:04 10° NNE
Meteor 2-10 Rocket 3.5 04:58:36 29° SW 05:00:55 53° WNW 05:05:50 10° N
Cosmos 1656 4.4 05:01:27 30° WNW 05:01:37 30° NW 05:06:25 10° N
COSMOS 2455 3.2 04:56:06 10° NNW 05:02:08 67° ENE 05:08:07 10° SE
IRS-1C Rocket 4.1 04:59:54 10° N 05:05:07 61° WNW 05:10:17 10° SSW
CZ-2C R/B 3.6 05:02:29 10° S 05:07:11 75° WSW 05:11:49 10° NNW
CZ-3 R/B 3.4 04:59:18 22° WSW 05:09:29 38° SSW 05:15:43 10° SE
ATLAS 5 CENTAUR R/B 2.6 05:12:00 10° SSW 05:16:16 48° ESE 05:20:57 10° NE
BREEZE M DEB (TANK) 3.2 05:18:00 17° N 05:18:00 17° N 05:19:24 10° NE
Meteor 1-31 Rocket 4.0 05:14:56 10° NNW 05:17:16 24° NW 05:17:16 24° NW
Cosmos 1441 Rocket 3.4 05:18:54 10° S 05:22:52 78° E 05:26:52 10° NNE
Hubble Space Telescope 3.2 05:23:19 10° SSW 05:25:06 12° S 05:26:54 10° SSE
Geosat 4.2 05:22:59 10° SE 05:27:58 73° ENE 05:33:00 10° NNW
Okean-O 2.5 05:23:39 10° N 05:28:06 82° WNW 05:32:31 10° SSW
Meteor 2-17 Rocket 4.4 05:22:35 10° SSW 05:28:33 59° W 05:34:34 10° N
Feng Yun 1-1 Rocket 4.2 05:23:28 10° NNE 05:29:01 78° WNW 05:34:41 10° SSW
Cosmos 1605 Rocket 4.0 05:23:22 10° SSW 05:29:23 57° W 05:35:23 10° N
Cosmos 1733 Rocket 2.9 05:26:04 10° N 05:30:27 81° W 05:34:51 10° S
Cosmos 1862 Rocket 3.5 05:26:45 10° S 05:31:05 89° ENE 05:35:29 10° N
Cosmos 1697 Rocket 3.6 05:28:51 21° W 05:31:18 28° NW 05:36:05 10° N
EXPRESS MD2 4.2 05:28:50 18° NW 05:31:56 79° NNE 05:40:19 10° ESE
SJ 16-02 1.8 05:28:21 13° SW 05:31:57 39° WNW 05:36:08 10° N
SL-16 R/B 2.7 05:28:02 10° S 05:33:37 65° ESE 05:39:15 10° NNE
Meteor 1-26 Rocket 4.3 05:27:44 10° S 05:33:39 89° W 05:39:31 10° N
Cosmos 2100 Rocket 4.4 05:27:44 10° S 05:33:48 65° E 05:39:54 10° NNE
Cosmos 1269 Rocket 4.0 05:32:05 10° NNW 05:37:20 69° WSW 05:42:34 10° S
COSMO-SKYMED 1 2.8 05:33:36 10° S 05:37:46 47° W 05:41:59 10° NNW
MTI 3.8 05:36:35 10° S 05:39:41 55° W 05:42:50 10° NNW
Cosmos 494 Rocket 4.4 05:37:26 10° NNW 05:42:33 64° ENE 05:47:35 10° SSE
COSMOS 2441 4.4 05:39:25 10° NNE 05:44:20 85° WNW 05:49:14 10° SSW
CZ-2C R/B 2.5 05:42:46 10° N 05:47:49 65° WNW 05:52:55 10° SSW
Lacrosse 5 rocket 2.6 05:46:15 16° W 05:48:06 22° SW 05:51:16 10° S
NOAA 6 4.4 05:45:14 10° N 05:50:07 43° WNW 05:54:56 10° SW
Cosmos 405 3.6 05:47:32 10° NNW 05:50:47 33° W 05:54:01 10° SSW
Cosmos 1437 Rocket 3.9 05:47:43 10° N 05:51:41 49° ENE 05:55:34 10° SSE
BREEZE-M DEB (TANK) 3.3 05:50:13 11° NW 05:53:21 75° NNE 06:04:26 10° ESE
Meteor 1-14 Rocket 4.3 05:48:57 10° NNW 05:54:56 75° W 06:00:49 10° S
Cosmos 2061 Rocket 4.2 05:52:08 10° S 05:58:19 80° E 06:04:32 10° N
Meteor 1-20 Rocket 4.3 05:53:08 10° NNW 05:58:59 82° W 06:04:45 10° S
OPS 8737 4.5 05:56:14 10° SW 06:00:04 67° NW 06:03:27 10° NNE
Cosmos 1606 2.6 05:56:20 10° S 06:00:09 85° W 06:03:59 10° N
IDEFIX/ARIANE 42P 3.2 05:57:26 10° N 06:02:09 35° WNW 06:06:49 10° SW
Cosmos 1802 Rocket 4.2 05:56:41 10° S 06:03:05 86° E 06:09:28 10° N
Cosmos 2173 Rocket 4.0 05:57:50 10° S 06:04:02 80° W 06:10:13 10° N
Cosmos 1459 Rocket 4.0 05:58:00 10° S 06:04:14 79° W 06:10:36 10° N
Cosmos 2016 Rocket 4.4 05:58:02 10° S 06:04:18 74° E 06:10:40 10° N
SMAP 3.6 06:06:34 10° NNE 06:11:12 65° ESE 06:15:49 10° S
Cosmos 1484 Rocket 2.8 06:07:59 10° N 06:11:59 80° WNW 06:15:59 10° SSW
CSL-04 Rocket 4.2 06:10:00 10° NNE 06:15:16 65° ESE 06:20:33 10° S
Meteor 1-4 Rocket 4.0 06:12:08 10° N 06:15:45 45° ENE 06:19:24 10° SSE
Meteor 2-6 Rocket 4.4 06:12:02 10° S 06:17:34 79° E 06:23:01 10° NNE
